Meath Environmental Platform

Observations for Trim Patrick St

Time AQI Temp °C Hum % Pres Pa CO μg/m³ H₂S μg/m³ NO μg/m³ NO₂ μg/m³ O₃ μg/m³ SO₂ μg/m³ PM1 μg/m³ PM2.5 μg/m³ PM10 μg/m³
Friday 31 July 2026
19:55 3 20.4 47 68,761 0.09 12.87 1.29 21.6 60.26 4.02 23.43 36.64 45.46
19:54 3 20.5 46 68,757 0.09 12.94 1.3 20.86 59.32 4.19 20.86 33.65 43.83
19:53 3 20.5 46 68,751 0.08 12.89 1.3 21.22 60.08 3.93 20.86 33.65 41.02
19:52 3 20.5 46 68,745 0.07 11.89 1.3 18.13 63.36 4.05 20 32.84 39.06
19:51 3 20.5 47 68,735 0.05 13 1.3 21.19 61.43 3.93 19.14 30.5 32.47
19:50 3 20.6 46 68,751 0.05 13.07 1.33 24.62 58.12 4.26 16.57 26.72 26.98
19:49 3 20.6 46 68,743 0.07 12.42 1.32 19.25 62.25 3.74 17.43 29.76 32.73
19:48 3 20.6 46 68,737 0.07 14.58 1.33 25.06 57.62 4.23 18.29 31.32 34.43
19:47 3 20.6 46 68,722 0.07 13.84 1.32 23 61.35 4.45 19.14 30.57 38.21
19:46 3 20.7 46 68,728 0.07 12.7 1.33 18.96 66.24 4.19 20 35.24 43.92
19:45 3 20.7 46 68,745 0.06 13.07 1.32 20.76 60.94 3.88 20 33.72 41.17
19:44 3 20.7 46 68,734 0.05 12.52 1.32 20.42 62.78 3.98 20 33.71 42.08
19:43 3 20.7 46 68,749 0.04 10.89 1.33 19.26 62 3.71 19.14 30.63 35.53
19:42 3 20.8 46 68,741 0 12.02 1.34 21.03 63.76 4.2 15.71 25.98 27.04
19:41 3 20.7 45 68,728 0 11.44 1.34 30.16 54.23 3.56 11.43 19.85 21.83
19:40 3 20.8 45 68,741 0 11.23 1.37 18.96 65.52 4.23 10.57 19.08 20.99
19:39 3 20.8 46 68,732 0 11.02 1.37 17.48 64.76 3.45 6.29 15.19 16.71
19:38 3 20.8 46 68,743 0 11.33 1.34 26.53 60.82 3.89 5.43 12.88 14.17
19:36 3 20.8 45 68,790 0 10.07 1.36 22.12 59.41 3.96 5.43 12.13 13.34
19:35 3 20.8 45 68,796 0 9.22 1.35 19.54 64.29 3.57 6.29 12.9 14.19